[[{"header":{"parameterUnit":"m.s-1","parameterCategory":2,"la1":30.2991,"la2":30.254,"lo1":-89.0895,"lo2":-89.0444,"dy":0.0017,"dx":0.0017,"nx":28,"ny":28,"refTime":"2024-07-03T09:00:00:Z","depth":"0","parameterNumber":2,"parameterNumberName":"U-component_of_CURRENTS"},"data":[0,0,0,0,0,0,0,0,0,0,0,0,0,0,0,0,0,0,0,0,0,0,0,0,0,0,0,0,0,0,0,0,0,0,0,0,0,0,0,0,0,0,0,0,0,0,0,0,0,0,0,0,0,0,0,0,0,0,-0.2505,-0.2506,0,-0.2598,-0.2599,-0.26,-0.2821,-0.2826,-0.2831,-0.2836,-0.3059,-0.3061,-0.3062,0,0,0,0,0,0,0,0,0,0,0,0,0,-0.254,-0.2537,-0.2505,-0.2506,-0.2508,-0.2598,-0.2599,-0.26,-0.282,-0.2826,-0.2832,-0.2838,-0.3059,-0.3061,-0.3062,0,0,0,0,0,0,0,0,0,0,0,0,0,-0.2564,-0.2536,-0.2505,-0.2632,-0.2644,-0.2598,-0.2599,-0.26,-0.2819,-0.2827,-0.2834,-0.2841,-0.3058,-0.306,-0.3062,-0.2926,0,0,-0.3069,-0.3069,0,0,0,0,0,0,0,0,-0.2562,-0.2562,-0.2611,-0.2623,-0.2637,-0.2709,-0.2694,-0.2717,-0.2817,-0.2749,-0.2836,-0.2845,-0.2951,-0.2962,-0.2956,-0.2937,-0.2946,-0.3069,-0.307,-0.3071,-0.3071,0,0,0,0,0,0,0,-0.256,-0.256,-0.2538,-0.2612,-0.2628,-0.2691,-0.2702,-0.2698,-0.2807,-0.2755,-0.2773,-0.2786,-0.296,-0.2954,-0.2964,-0.295,-0.3069,-0.307,-0.3072,-0.3072,-0.2856,-0.2849,0,0,0,0,0,0,-0.2545,-0.2556,-0.2536,-0.2542,-0.2621,-0.2685,-0.2697,-0.2675,-0.2805,-0.2831,-0.278,-0.2796,-0.2947,-0.2961,-0.2973,-0.2843,-0.3071,-0.3073,-0.3074,-0.2863,-0.2854,-0.2847,0,0,0,0,0,0,-0.2545,-0.2541,-0.2532,-0.2557,-0.2562,-0.2677,-0.265,-0.2673,-0.2706,-0.2822,-0.2853,-0.2795,-0.2953,-0.297,-0.2959,-0.2854,-0.3074,-0.3075,-0.2871,-0.286,-0.285,-0.2569,0,0,0,0,0,0,-0.2545,-0.2539,-0.2519,-0.2554,-0.256,-0.2502,-0.2644,-0.267,-0.2702,-0.2726,-0.2842,-0.287,-0.296,-0.2954,-0.296,-0.2861,-0.3077,-0.288,-0.2866,-0.2854,-0.2587,-0.255,-0.2519,0,0,0,0,0,-0.2545,-0.2503,-0.2516,-0.2515,-0.2526,-0.2499,-0.2504,-0.2612,-0.2696,-0.2675,-0.2746,-0.2868,-0.2876,-0.2949,-0.2959,-0.2857,-0.2886,-0.287,-0.2855,-0.2602,-0.2557,-0.2519,0,0,0,0,0,0,-0.2508,-0.2521,-0.2539,-0.2502,-0.2493,-0.2539,-0.2537,-0.259,-0.2623,-0.2668,-0.2784,-0.2809,-0.2749,-0.2822,-0.2901,-0.2748,-0.2896,-0.2881,-0.2701,-0.266,-0.2626,-0.2672,-0.3079,0,0,0,0,0,-0.2476,-0.2454,-0.2458,-0.2422,-0.2413,-0.246,-0.2468,-0.2527,-0.2563,-0.259,-0.2653,-0.2697,-0.2671,-0.2693,-0.2693,-0.2614,-0.2672,-0.2548,-0.2513,-0.2484,-0.252,-0.2465,-0.2431,-0.2795,-0.2795,-0.2796,0,0,-0.2452,-0.2456,-0.2444,-0.2413,-0.2421,-0.2375,-0.2483,-0.2482,-0.2447,-0.2599,-0.2565,-0.2577,-0.2617,-0.2527,-0.2507,-0.2596,-0.2392,-0.2464,-0.244,-0.2493,-0.2445,-0.2411,-0.238,-0.2785,-0.2786,-0.2788,0,0,-0.2386,-0.2381,-0.2339,-0.2319,-0.232,-0.2325,-0.2316,-0.2332,-0.2346,-0.2284,-0.2362,-0.2312,-0.2309,-0.2296,-0.2292,-0.2059,-0.2199,-0.2052,-0.194,-0.1881,-0.1853,-0.1829,-0.1796,-0.1772,-0.2052,-0.2051,-0.2051,0,-0.2355,-0.2304,-0.2318,-0.2268,-0.2255,-0.2291,-0.2236,-0.2207,-0.2217,-0.2201,-0.2255,-0.2171,-0.2189,-0.2072,-0.1988,-0.1984,-0.2006,-0.2098,-0.1841,-0.1819,-0.18,-0.1773,-0.175,-0.2036,-0.2038,-0.2039,-0.2041,0,-0.2259,-0.222,-0.2187,-0.2131,-0.2101,-0.206,-0.2029,-0.1988,-0.1999,-0.1989,-0.1884,-0.1867,-0.1852,-0.1782,-0.1823,-0.1662,-0.1735,-0.1791,-0.196,-0.1747,-0.1731,-0.1712,-0.2014,-0.2019,-0.2024,-0.2028,0,0,-0.2139,-0.2131,-0.2108,-0.2091,-0.204,-0.2007,-0.1905,-0.1829,-0.1796,-0.1731,-0.1669,-0.1529,-0.1565,-0.156,-0.1562,-0.1493,-0.1311,-0.1586,-0.159,-0.1581,-0.1208,-0.1157,-0.1134,-0.1339,-0.1335,-0.1332,-0.1231,0,-0.2045,-0.1987,-0.1983,-0.1885,-0.1844,-0.1838,-0.1747,-0.1691,-0.1654,-0.1589,-0.1519,-0.1455,-0.1464,-0.145,-0.1363,-0.1357,-0.1261,-0.1336,-0.1398,-0.14,-0.1402,-0.1109,-0.1003,-0.0897,-0.1214,-0.1212,-0.121,0,-0.191,-0.1904,-0.1843,-0.1809,-0.1785,-0.1726,-0.1643,-0.1571,-0.1479,-0.1459,-0.1388,-0.1382,-0.1252,-0.1294,-0.1161,-0.1224,-0.1189,-0.1167,-0.1164,-0.1227,-0.1314,-0.117,-0.0854,-0.0853,-0.1183,-0.1185,-0.1187,0,-0.1836,-0.1775,-0.1752,-0.1735,-0.1697,-0.1656,-0.1613,-0.1534,-0.1425,-0.1392,-0.1325,-0.1258,-0.119,-0.1139,-0.1091,-0.1131,-0.0971,-0.1027,-0.0931,-0.0931,-0.0912,-0.0914,-0.0636,-0.0893,-0.0893,-0.0894,-0.0894,0,-0.1738,-0.1683,-0.1727,-0.1709,-0.1592,-0.1626,-0.1483,-0.145,-0.1358,-0.1181,-0.126,-0.1103,-0.1147,-0.1064,-0.1053,-0.0926,-0.0933,-0.0862,-0.087,-0.0799,-0.0793,-0.0862,-0.093,-0.089,-0.0891,-0.0892,-0.0892,0,-0.1598,-0.1674,-0.158,-0.1574,-0.1551,-0.1453,-0.1306,-0.1212,-0.1207,-0.0983,-0.0953,-0.0938,-0.0883,-0.0925,-0.0862,-0.0837,-0.0736,-0.0721,-0.0651,-0.0648,-0.0557,-0.0615,-0.0474,-0.046,-0.058,-0.0577,-0.0575,0,-0.1546,-0.1491,-0.1417,-0.1352,-0.133,-0.1211,-0.111,-0.1081,-0.096,-0.0805,-0.0674,-0.0641,-0.0491,-0.0472,-0.0549,-0.0552,-0.0609,-0.0433,-0.0451,-0.0472,-0.0544,-0.0626,-0.0633,-0.0298,-0.0294,-0.0291,-0.0288,0,-0.1312,-0.1267,-0.1202,-0.1085,-0.099,-0.0841,-0.0722,-0.0607,-0.0545,-0.0391,-0.0181,-0.0072,-0.0104,-0.0055,-0.0186,-0.022,-0.0417,-0.036,-0.0376,-0.0267,-0.0346,-0.0365,-0.0487,-0.0258,-0.0261,-0.0263,-0.0265,-0.0266,-0.1039,-0.0934,-0.0863,-0.0737,-0.065,-0.0527,-0.0399,-0.029,-0.0081,0.0111,0.0208,0.0369,0.0435,0.026,0.0119,-0.0071,-0.0165,-0.0036,-0.0095,-0.017,-0.0157,-0.0216,-0.0011,-0.0012,-0.0013,-0.0015,-0.0016,0,-0.0671,-0.0637,-0.0523,-0.0407,-0.0305,-0.0323,-0.017,-0.0074,0.0144,0.0357,0.0558,0.0776,0.0814,0.0627,0.0458,0.0307,0.0128,0.0172,0.0096,0.0082,0.0075,0.0088,0.0319,0.0319,0.0319,0.0318,0.0318,0.0318,-0.0466,-0.0313,-0.0328,-0.0127,-0.0086,0.0044,0.0106,0.0238,0.0369,0.0632,0.0773,0.0857,0.0894,0.0891,0.0653,0.0487,0.0312,0.0239,0.014,0.0138,0.0113,0.0089,0.0094,0.0322,0.0321,0.0201,0.02,0.02]},{"header":{"parameterUnit":"m.s-1","parameterCategory":2,"la1":30.2991,"la2":30.254,"lo1":-89.0895,"lo2":-89.0444,"dy":0.0017,"dx":0.0017,"nx":28,"ny":28,"refTime":"2024-07-03T09:00:00:Z","depth":"0","parameterNumber":3,"parameterNumberName":"V-component_of_CURRENTS"},"data":[0,0,0,0,0,0,0,0,0,0,0,0,0,0,0,0,0,0,0,0,0,0,0,0,0,0,0,0,0,0,0,0,0,0,0,0,0,0,0,0,0,0,0,0,0,0,0,0,0,0,0,0,0,0,0,0,0,0,0.0055,0.0059,0,0.0413,0.0417,0.0422,0.0666,0.0668,0.067,0.0671,0.0839,0.0841,0.0844,0,0,0,0,0,0,0,0,0,0,0,0,0,-0.0266,-0.0263,0.0054,0.0059,0.0063,0.0412,0.0418,0.0423,0.0666,0.0668,0.067,0.0672,0.0838,0.0841,0.0845,0,0,0,0,0,0,0,0,0,0,0,0,0,-0.0039,-0.0262,0.0054,0.0226,0.0244,0.0411,0.0418,0.0424,0.0666,0.0668,0.0671,0.0673,0.0836,0.0841,0.0845,0.0823,0,0,0.0858,0.086,0,0,0,0,0,0,0,0,-0.0052,-0.0027,0.0196,0.0214,0.0235,0.0496,0.0366,0.0548,0.0665,0.0507,0.0671,0.0674,0.0703,0.0719,0.0786,0.0831,0.0838,0.0859,0.0862,0.0863,0.0865,0,0,0,0,0,0,0,-0.0068,-0.004,0.0198,0.02,0.0224,0.0337,0.0371,0.0403,0.0585,0.0521,0.054,0.0576,0.0713,0.0781,0.0791,0.0841,0.0859,0.0863,0.0865,0.0867,0.0917,0.0916,0,0,0,0,0,0,-0.0126,-0.0056,0.0187,0.0209,0.0093,0.034,0.0378,0.0411,0.059,0.062,0.0574,0.0586,0.0773,0.0786,0.0797,0.0856,0.0863,0.0868,0.087,0.0919,0.0917,0.0916,0,0,0,0,0,0,-0.0135,-0.0108,0.0172,0.0084,0.0127,0.0341,0.0378,0.0417,0.0502,0.0631,0.0659,0.062,0.0775,0.0791,0.084,0.0861,0.087,0.0874,0.092,0.0918,0.0916,0.0924,0,0,0,0,0,0,-0.0145,-0.0114,-0.0112,0.0079,0.013,0.0278,0.0377,0.0422,0.0519,0.054,0.0678,0.0697,0.0778,0.0833,0.0844,0.0867,0.0877,0.0922,0.0919,0.0917,0.0925,0.0922,0.092,0,0,0,0,0,-0.0158,-0.014,-0.0114,-0.0085,0.0126,0.0278,0.0315,0.0477,0.0518,0.056,0.0644,0.0694,0.0825,0.0836,0.0849,0.0874,0.0923,0.092,0.0917,0.0926,0.0923,0.092,0,0,0,0,0,0,-0.0261,-0.0108,-0.0076,-0.0011,0.0112,0.0319,0.0376,0.0461,0.0567,0.0577,0.0683,0.0707,0.0747,0.0788,0.0797,0.0872,0.0878,0.0878,0.088,0.0877,0.0875,0.0914,0.0881,0,0,0,0,0,-0.03,-0.025,-0.0096,-0.0046,0.0004,0.0171,0.0248,0.0353,0.0474,0.0529,0.0614,0.0685,0.0741,0.0792,0.0832,0.088,0.0887,0.0896,0.0894,0.0892,0.0928,0.0964,0.097,0.0906,0.0906,0.0906,0,0,-0.0324,-0.0236,-0.0207,-0.0067,0.0039,0.0147,0.0227,0.0343,0.0442,0.0515,0.0634,0.066,0.0738,0.0804,0.0827,0.0854,0.089,0.0888,0.0887,0.0925,0.0962,0.0969,0.0975,0.0904,0.0904,0.0905,0,0,-0.0324,-0.0281,-0.0231,-0.0133,0.001,0.0118,0.0137,0.0313,0.0397,0.0492,0.0558,0.0604,0.0699,0.0786,0.0835,0.0828,0.0849,0.0817,0.0883,0.0916,0.0924,0.093,0.0861,0.0862,0.085,0.085,0.085,0,-0.0362,-0.0263,-0.0193,-0.0106,-0.0006,0.0095,0.0199,0.0292,0.0461,0.052,0.0521,0.0666,0.0708,0.083,0.0841,0.0831,0.0817,0.09,0.0919,0.0926,0.0933,0.0861,0.0862,0.085,0.085,0.085,0.085,0,-0.03,-0.0219,-0.0178,-0.0037,0.0057,0.0164,0.0294,0.0364,0.0438,0.054,0.0629,0.0689,0.0791,0.0793,0.0834,0.0907,0.0861,0.0886,0.0939,0.0941,0.0862,0.0863,0.085,0.085,0.085,0.085,0,0,-0.0359,-0.017,-0.0151,-0.0043,0.0114,0.0228,0.0322,0.0481,0.057,0.0652,0.0764,0.0845,0.0856,0.0909,0.0937,0.0987,0.0979,0.0971,0.0973,0.0922,0.098,0.0903,0.0896,0.1019,0.1021,0.1023,0.0874,0,-0.0312,-0.0128,-0.0057,0.0137,0.0266,0.0362,0.0468,0.0597,0.0672,0.0773,0.0828,0.0909,0.0909,0.0938,0.099,0.097,0.0996,0.1012,0.097,0.0967,0.092,0.0902,0.1,0.0876,0.0876,0.0876,0.0876,0,-0.0259,-0.0115,0.0074,0.03,0.0356,0.0466,0.0658,0.0761,0.0872,0.0917,0.0982,0.0988,0.1042,0.1036,0.1045,0.1052,0.1029,0.1016,0.1011,0.096,0.0898,0.089,0.0878,0.0893,0.0877,0.0877,0.0877,0,-0.0229,-0.0021,0.015,0.0234,0.0478,0.057,0.0684,0.0816,0.0909,0.0987,0.1026,0.1069,0.1069,0.1079,0.0995,0.1031,0.0968,0.1009,0.0917,0.0905,0.0995,0.0989,0.1029,0.105,0.105,0.1051,0.1051,0,-0.0144,0.0009,0.0185,0.0323,0.0512,0.0641,0.0806,0.0905,0.1013,0.1122,0.1105,0.1163,0.1089,0.1025,0.0992,0.0907,0.095,0.0924,0.089,0.0983,0.0978,0.1001,0.0988,0.1045,0.1046,0.1047,0.1048,0,-0.0045,0.0036,0.0266,0.0501,0.0555,0.0712,0.0888,0.0987,0.1076,0.1197,0.1212,0.1199,0.1095,0.0968,0.09,0.0873,0.0824,0.0785,0.0827,0.0804,0.077,0.0752,0.0713,0.0757,0.0685,0.0683,0.0681,0,0.0099,0.0214,0.0402,0.0477,0.0602,0.0784,0.0881,0.1015,0.1093,0.1246,0.1294,0.1205,0.1195,0.0978,0.0823,0.0664,0.0718,0.0689,0.0821,0.078,0.0736,0.0724,0.0767,0.0891,0.0891,0.0891,0.0891,0,0.0414,0.0403,0.0528,0.0629,0.0737,0.0876,0.102,0.1064,0.1208,0.1325,0.1438,0.1453,0.1223,0.1098,0.0807,0.0733,0.0734,0.0683,0.0694,0.0945,0.0891,0.0912,0.0883,0.089,0.089,0.089,0.089,0.089,0.0633,0.0678,0.0723,0.0818,0.0887,0.0975,0.1057,0.1149,0.1292,0.1454,0.1503,0.1578,0.144,0.106,0.0881,0.0668,0.0691,0.0775,0.0754,0.074,0.0823,0.072,0.0665,0.0664,0.0663,0.0662,0.0661,0,0.0944,0.0878,0.0939,0.0996,0.1044,0.1073,0.116,0.1216,0.1338,0.148,0.1619,0.1691,0.15,0.124,0.0954,0.0842,0.0824,0.0802,0.089,0.0935,0.0911,0.0967,0.0914,0.0914,0.0914,0.0914,0.0914,0.0914,0.109,0.1118,0.1053,0.1147,0.1162,0.1244,0.1268,0.1353,0.1428,0.163,0.1762,0.1821,0.1717,0.1271,0.1001,0.0934,0.0936,0.0883,0.085,0.0912,0.0911,0.0911,0.0966,0.0913,0.0913,0.0989,0.0989,0.0989]}],[{"header":{"parameterUnit":"m.s-1","parameterCategory":2,"la1":30.2991,"la2":30.254,"lo1":-89.0895,"lo2":-89.0444,"dy":0.0017,"dx":0.0017,"nx":28,"ny":28,"refTime":"2024-07-03T09:00:00:Z","depth":"2","parameterNumber":2,"parameterNumberName":"U-component_of_CURRENTS"},"data":[0,0,0,0,0,0,0,0,0,0,0,0,0,0,0,0,0,0,0,0,0,0,0,0,0,0,0,0,0,0,0,0,0,0,0,0,0,0,0,0,0,0,0,0,0,0,0,0,0,0,0,0,0,0,0,0,0,0,-0.1887,-0.1888,0,-0.1923,-0.1923,-0.1922,-0.1918,-0.1919,-0.1919,-0.192,-0.203,-0.2033,-0.2035,0,0,0,0,0,0,0,0,0,0,0,0,0,-0.1717,-0.172,-0.1887,-0.1888,-0.189,-0.1923,-0.1923,-0.1922,-0.1918,-0.1919,-0.1919,-0.192,-0.2029,-0.2032,-0.2035,0,0,0,0,0,0,0,0,0,0,0,0,0,-0.1765,-0.1721,-0.1887,-0.1901,-0.1903,-0.1924,-0.1923,-0.1922,-0.1918,-0.1919,-0.1919,-0.192,-0.2029,-0.2032,-0.2036,-0.2043,0,0,-0.2047,-0.2049,0,0,0,0,0,0,0,0,-0.1762,-0.1769,-0.1897,-0.19,-0.1903,-0.1928,-0.1904,-0.197,-0.1918,-0.19,-0.192,-0.192,-0.201,-0.2015,-0.2002,-0.2048,-0.2053,-0.2047,-0.205,-0.2051,-0.2052,0,0,0,0,0,0,0,-0.1759,-0.1767,-0.1889,-0.1899,-0.1903,-0.1873,-0.188,-0.1915,-0.1942,-0.1901,-0.1904,-0.1927,-0.2011,-0.1998,-0.2005,-0.2055,-0.2047,-0.2051,-0.2053,-0.2054,-0.2083,-0.2082,0,0,0,0,0,0,-0.1783,-0.1765,-0.1888,-0.1891,-0.1846,-0.1877,-0.1884,-0.1909,-0.194,-0.1949,-0.1926,-0.1927,-0.1992,-0.2001,-0.201,-0.2032,-0.2051,-0.2055,-0.2057,-0.2085,-0.2083,-0.2082,0,0,0,0,0,0,-0.1779,-0.1794,-0.1887,-0.1838,-0.1849,-0.1881,-0.1907,-0.191,-0.1918,-0.1961,-0.1968,-0.1937,-0.1993,-0.2004,-0.2072,-0.2037,-0.2056,-0.206,-0.2087,-0.2084,-0.2082,-0.2071,0,0,0,0,0,0,-0.1774,-0.1792,-0.1806,-0.184,-0.1854,-0.1898,-0.1908,-0.191,-0.1936,-0.1937,-0.1973,-0.1982,-0.1994,-0.2066,-0.2076,-0.2042,-0.2063,-0.2088,-0.2086,-0.2083,-0.2073,-0.2069,-0.2065,0,0,0,0,0,-0.1768,-0.177,-0.1806,-0.1822,-0.1876,-0.19,-0.1901,-0.1917,-0.1936,-0.1929,-0.198,-0.1982,-0.2052,-0.2071,-0.2081,-0.2048,-0.209,-0.2086,-0.2083,-0.2075,-0.207,-0.2065,0,0,0,0,0,0,-0.1689,-0.1772,-0.1812,-0.1838,-0.1878,-0.1904,-0.1891,-0.1928,-0.1956,-0.1965,-0.2006,-0.2019,-0.2049,-0.2056,-0.2075,-0.204,-0.2053,-0.2052,-0.2043,-0.2039,-0.2034,-0.202,-0.2066,0,0,0,0,0,-0.169,-0.1726,-0.1792,-0.1818,-0.1825,-0.1868,-0.188,-0.1908,-0.1947,-0.1958,-0.1996,-0.202,-0.2035,-0.2052,-0.2066,-0.2081,-0.2047,-0.2048,-0.2044,-0.2041,-0.2032,-0.1976,-0.1967,-0.2071,-0.2071,-0.2071,0,0,-0.1676,-0.1724,-0.1748,-0.1807,-0.1822,-0.1842,-0.1871,-0.1892,-0.1924,-0.197,-0.2007,-0.2024,-0.2039,-0.2043,-0.2051,-0.2053,-0.1986,-0.2037,-0.2034,-0.2027,-0.1972,-0.1962,-0.1953,-0.2069,-0.2069,-0.2069,0,0,-0.1647,-0.1694,-0.1705,-0.1735,-0.1787,-0.182,-0.1838,-0.1882,-0.1902,-0.1964,-0.1982,-0.1995,-0.2038,-0.2023,-0.2026,-0.201,-0.1973,-0.1992,-0.1961,-0.1907,-0.1898,-0.189,-0.1808,-0.1793,-0.1982,-0.1982,-0.1982,0,-0.1626,-0.1651,-0.1707,-0.1717,-0.1737,-0.1816,-0.182,-0.1858,-0.1933,-0.1937,-0.1975,-0.1987,-0.2018,-0.1992,-0.1985,-0.2,-0.1955,-0.1987,-0.1902,-0.1894,-0.1886,-0.1804,-0.1787,-0.1981,-0.1981,-0.1981,-0.1981,0,-0.1592,-0.1622,-0.1613,-0.1672,-0.1705,-0.171,-0.1791,-0.1823,-0.1876,-0.1908,-0.1913,-0.1951,-0.1939,-0.1941,-0.1976,-0.191,-0.1889,-0.1912,-0.192,-0.1875,-0.1791,-0.1774,-0.198,-0.198,-0.198,-0.1981,0,0,-0.1523,-0.1579,-0.1579,-0.1593,-0.1674,-0.1692,-0.1746,-0.1782,-0.1778,-0.1852,-0.182,-0.1866,-0.1862,-0.1863,-0.1875,-0.1848,-0.1765,-0.1858,-0.1856,-0.1783,-0.1613,-0.1522,-0.1494,-0.1774,-0.1771,-0.1769,-0.1567,0,-0.1471,-0.1461,-0.1523,-0.1539,-0.1534,-0.1623,-0.1658,-0.1718,-0.1752,-0.1744,-0.1776,-0.1767,-0.1838,-0.1818,-0.1801,-0.1786,-0.1723,-0.1815,-0.166,-0.1655,-0.1586,-0.1473,-0.1413,-0.1222,-0.1551,-0.1548,-0.1546,0,-0.141,-0.1414,-0.1393,-0.1453,-0.1454,-0.1489,-0.1517,-0.1569,-0.1596,-0.1613,-0.1609,-0.1634,-0.1623,-0.1681,-0.1616,-0.1671,-0.1627,-0.1616,-0.1608,-0.1516,-0.1532,-0.1323,-0.1178,-0.1517,-0.1519,-0.1521,-0.1523,0,-0.1297,-0.1331,-0.1303,-0.1319,-0.1393,-0.1402,-0.1456,-0.1503,-0.1525,-0.1518,-0.1512,-0.1494,-0.1487,-0.1459,-0.1472,-0.1528,-0.1372,-0.1438,-0.1296,-0.1289,-0.1202,-0.119,-0.1334,-0.1334,-0.1335,-0.1335,-0.1336,0,-0.1201,-0.119,-0.1242,-0.1223,-0.1209,-0.1307,-0.1291,-0.134,-0.1372,-0.1377,-0.143,-0.1412,-0.1437,-0.1383,-0.1384,-0.1271,-0.1289,-0.1246,-0.1218,-0.1191,-0.1182,-0.143,-0.1444,-0.1328,-0.1329,-0.1331,-0.1332,0,-0.109,-0.1111,-0.1096,-0.1139,-0.1154,-0.1154,-0.1235,-0.1232,-0.1281,-0.1281,-0.1291,-0.1321,-0.1256,-0.1235,-0.1154,-0.1139,-0.1056,-0.0999,-0.0951,-0.092,-0.1026,-0.1042,-0.0809,-0.0804,-0.0799,-0.0796,-0.0793,0,-0.1021,-0.0995,-0.1022,-0.1026,-0.1045,-0.1065,-0.1093,-0.117,-0.1186,-0.124,-0.1236,-0.1177,-0.1144,-0.097,-0.0885,-0.0762,-0.0872,-0.0639,-0.0742,-0.097,-0.0966,-0.0989,-0.101,-0.0611,-0.0606,-0.0603,-0.06,0,-0.0914,-0.093,-0.093,-0.0923,-0.0941,-0.0965,-0.1014,-0.1009,-0.111,-0.1114,-0.1125,-0.1102,-0.0946,-0.0807,-0.0624,-0.0556,-0.0664,-0.0561,-0.0769,-0.0766,-0.077,-0.0772,-0.0801,-0.0569,-0.0572,-0.0574,-0.0576,-0.0577,-0.0859,-0.084,-0.0847,-0.0843,-0.0863,-0.0877,-0.0858,-0.0913,-0.092,-0.0919,-0.0969,-0.0894,-0.0868,-0.0551,-0.0448,-0.031,-0.0391,-0.0395,-0.0411,-0.043,-0.0456,-0.0453,-0.0195,-0.0196,-0.0197,-0.0197,-0.0198,0,-0.0798,-0.0791,-0.0781,-0.0772,-0.0755,-0.0796,-0.0817,-0.0784,-0.0752,-0.0745,-0.0723,-0.0615,-0.0496,-0.0429,-0.0201,-0.0138,-0.0166,-0.0095,-0.0205,-0.0234,-0.026,-0.0285,0.0026,0.0026,0.0027,0.0027,0,0,-0.0767,-0.0738,-0.0729,-0.067,-0.0662,-0.0609,-0.0596,-0.0562,-0.0527,-0.0459,-0.0405,-0.0432,-0.0445,-0.0269,-0.0189,-0.0066,-0.0136,0.0002,-0.0176,-0.0336,-0.0362,-0.0421,-0.0487,0,0,0,0,0]},{"header":{"parameterUnit":"m.s-1","parameterCategory":2,"la1":30.2991,"la2":30.254,"lo1":-89.0895,"lo2":-89.0444,"dy":0.0017,"dx":0.0017,"nx":28,"ny":28,"refTime":"2024-07-03T09:00:00:Z","depth":"2","parameterNumber":3,"parameterNumberName":"V-component_of_CURRENTS"},"data":[0,0,0,0,0,0,0,0,0,0,0,0,0,0,0,0,0,0,0,0,0,0,0,0,0,0,0,0,0,0,0,0,0,0,0,0,0,0,0,0,0,0,0,0,0,0,0,0,0,0,0,0,0,0,0,0,0,0,-0.0387,-0.0385,0,-0.0341,-0.0342,-0.0343,-0.0347,-0.0346,-0.0345,-0.0344,-0.0043,-0.0037,-0.003,0,0,0,0,0,0,0,0,0,0,0,0,0,-0.0554,-0.0552,-0.0387,-0.0385,-0.0382,-0.0341,-0.0342,-0.0344,-0.0348,-0.0346,-0.0345,-0.0344,-0.0046,-0.0037,-0.0029,0,0,0,0,0,0,0,0,0,0,0,0,0,-0.051,-0.0551,-0.0387,-0.0365,-0.0362,-0.0341,-0.0342,-0.0344,-0.0348,-0.0346,-0.0345,-0.0343,-0.0049,-0.0038,-0.0028,0.0006,0,0,0.0004,0.0009,0,0,0,0,0,0,0,0,-0.0513,-0.0507,-0.0371,-0.0367,-0.0362,-0.0332,-0.029,-0.0208,-0.0348,-0.0373,-0.0344,-0.0343,-0.0105,-0.009,-0.0115,0.002,0.0033,0.0005,0.0012,0.0016,0.0019,0,0,0,0,0,0,0,-0.0516,-0.0509,-0.0388,-0.0368,-0.0363,-0.0382,-0.0376,-0.0278,-0.0258,-0.0371,-0.0366,-0.0332,-0.0103,-0.0126,-0.0107,0.0037,0.0005,0.0014,0.0021,0.0025,0.0365,0.0368,0,0,0,0,0,0,-0.048,-0.0511,-0.0389,-0.0385,-0.0414,-0.0379,-0.0373,-0.0359,-0.0265,-0.0246,-0.0333,-0.0331,-0.0145,-0.012,-0.0096,0.0029,0.0016,0.0026,0.0032,0.0363,0.0366,0.0369,0,0,0,0,0,0,-0.0485,-0.0471,-0.0391,-0.0431,-0.0419,-0.0375,-0.0361,-0.0358,-0.0357,-0.0235,-0.0215,-0.0329,-0.0143,-0.0111,0.0015,0.0039,0.0031,0.004,0.036,0.0364,0.0368,0.0232,0,0,0,0,0,0,-0.049,-0.0474,-0.0473,-0.0429,-0.0415,-0.0371,-0.036,-0.0358,-0.033,-0.0328,-0.0224,-0.0198,-0.0139,-0.0001,0.0025,0.0054,0.0049,0.0356,0.0361,0.0366,0.0233,0.0231,0.0229,0,0,0,0,0,-0.0497,-0.0497,-0.0474,-0.0459,-0.0409,-0.0369,-0.0368,-0.0344,-0.0331,-0.0339,-0.0253,-0.02,0.0051,0.0008,0.004,0.0071,0.0354,0.036,0.0366,0.0234,0.0231,0.0229,0,0,0,0,0,0,-0.0564,-0.0494,-0.0469,-0.0446,-0.0401,-0.0362,-0.0364,-0.0337,-0.029,-0.027,-0.0176,-0.0143,-0.002,0.0058,0.0009,0.0193,0.0217,0.023,0.0107,0.0105,0.0103,0.0072,0.0057,0,0,0,0,0,-0.0574,-0.0562,-0.0487,-0.0468,-0.0448,-0.0405,-0.0389,-0.0358,-0.0294,-0.0277,-0.0201,-0.009,0.0022,0.0087,0.019,0.0284,0.0307,0.0336,0.0334,0.0331,0.0333,0.0378,0.0377,0.0389,0.0389,0.0389,0,0,-0.0587,-0.0547,-0.0537,-0.0481,-0.0456,-0.0424,-0.0398,-0.0359,-0.0326,-0.0239,-0.0184,-0.0092,0.0051,0.0147,0.0211,0.0217,0.0334,0.0339,0.0334,0.0339,0.0384,0.0382,0.038,0.0393,0.0392,0.0392,0,0,-0.0602,-0.0579,-0.057,-0.0533,-0.0463,-0.0437,-0.0415,-0.0362,-0.0341,-0.0252,-0.0181,-0.0088,0.0082,0.0148,0.0221,0.0282,0.0323,0.0344,0.0302,0.0343,0.034,0.0338,0.0309,0.0306,0.0338,0.0338,0.0338,0,-0.0618,-0.0596,-0.056,-0.0532,-0.0504,-0.0437,-0.0414,-0.0379,-0.029,-0.0262,-0.0226,-0.0025,0.0078,0.0188,0.0208,0.027,0.0285,0.028,0.0331,0.033,0.033,0.0302,0.03,0.0332,0.0333,0.0333,0.0334,0,-0.0612,-0.0596,-0.0588,-0.0537,-0.0509,-0.0479,-0.0403,-0.0381,-0.0328,-0.0272,-0.016,-0.0051,0.007,0.0119,0.019,0.0256,0.0258,0.0311,0.0308,0.0319,0.029,0.029,0.0324,0.0326,0.0327,0.0329,0,0,-0.0634,-0.0598,-0.059,-0.0578,-0.0511,-0.0481,-0.0442,-0.0385,-0.0353,-0.0259,-0.0221,-0.0052,-0.0002,0.0085,0.0164,0.0198,0.0188,0.0253,0.0258,0.0172,0.023,0.0221,0.022,0.0248,0.0248,0.0249,0.0185,0,-0.0641,-0.0623,-0.0594,-0.0565,-0.0553,-0.0503,-0.0472,-0.0403,-0.0342,-0.0291,-0.018,-0.0082,-0.0005,0.0046,0.0094,0.0194,0.0194,0.0197,0.0281,0.0282,0.0231,0.0223,0.0218,0.0163,0.0185,0.0185,0.0185,0,-0.063,-0.0629,-0.0629,-0.0596,-0.0584,-0.0556,-0.0519,-0.0466,-0.0377,-0.0331,-0.0243,-0.0146,-0.0055,-0.0001,0.0117,0.012,0.0164,0.0209,0.0209,0.0255,0.0276,0.0177,0.0163,0.0186,0.0186,0.0186,0.0186,0,-0.0672,-0.0639,-0.0658,-0.0643,-0.06,-0.0596,-0.0556,-0.0482,-0.045,-0.0357,-0.0324,-0.02,-0.0127,-0.004,0.0086,0.0105,0.018,0.0217,0.0222,0.0218,0.0261,0.0261,0.0257,0.0257,0.0257,0.0258,0.0258,0,-0.0691,-0.0694,-0.068,-0.0686,-0.0684,-0.0623,-0.0605,-0.0556,-0.0497,-0.0451,-0.0332,-0.0287,-0.0124,-0.0043,0.0045,0.0135,0.0151,0.0202,0.0215,0.0212,0.0209,0.0293,0.0298,0.0255,0.0256,0.0256,0.0257,0,-0.0733,-0.0729,-0.0738,-0.0718,-0.0709,-0.0694,-0.0647,-0.0622,-0.0558,-0.0511,-0.0483,-0.0352,-0.0232,-0.011,0.0019,0.0084,0.0163,0.0177,0.0127,0.0136,0.0163,0.0163,0.0159,0.0158,0.0158,0.0157,0.0157,0,-0.0768,-0.0787,-0.0774,-0.0773,-0.0769,-0.0746,-0.0726,-0.0665,-0.0638,-0.0546,-0.0522,-0.0409,-0.0309,-0.0145,-0.001,0.0093,0.0128,0.0121,0.017,0.0147,0.016,0.016,0.016,0.0141,0.0141,0.0141,0.014,0,-0.0833,-0.0827,-0.0823,-0.0829,-0.0819,-0.0805,-0.0768,-0.0768,-0.0685,-0.0645,-0.0568,-0.0492,-0.032,-0.0166,-0.0026,0.0038,0.0113,0.0115,0.0129,0.0178,0.013,0.0142,0.0144,0.0137,0.0137,0.0138,0.0138,0.0138,-0.0874,-0.0876,-0.0866,-0.0864,-0.0856,-0.0843,-0.0823,-0.0784,-0.0746,-0.0639,-0.0598,-0.0444,-0.033,-0.0086,-0.0003,0.0087,0.0087,0.0118,0.012,0.0122,0.0143,0.0099,0.0098,0.0098,0.0098,0.0098,0.0098,0,-0.0911,-0.0895,-0.0899,-0.0884,-0.0878,-0.0869,-0.0835,-0.0792,-0.0736,-0.0625,-0.0536,-0.0367,-0.0216,-0.0083,0.0054,0.0108,0.0122,0.0118,0.0132,0.0134,0.0136,0.0159,0.0118,0.0118,0.0119,0.0119,0,0,-0.0918,-0.0911,-0.0904,-0.0902,-0.0897,-0.0874,-0.085,-0.0776,-0.0683,-0.054,-0.0415,-0.0298,-0.0173,-0.007,-0.0002,0.007,0.0087,0.0074,0.0049,0.0058,0.006,0.0123,0.0158,0,0,0,0,0]}],[{"header":{"parameterUnit":"m.s-1","parameterCategory":2,"la1":30.2991,"la2":30.254,"lo1":-89.0895,"lo2":-89.0444,"dy":0.0017,"dx":0.0017,"nx":28,"ny":28,"refTime":"2024-07-03T09:00:00:Z","depth":"4","parameterNumber":2,"parameterNumberName":"U-component_of_CURRENTS"},"data":[0,0,0,0,0,0,0,0,0,0,0,0,0,0,0,0,0,0,0,0,0,0,0,0,0,0,0,0,0,0,0,0,0,0,0,0,0,0,0,0,0,0,0,0,0,0,0,0,0,0,0,0,0,0,0,0,0,0,-0.0889,-0.0888,0,-0.0875,-0.0875,-0.0875,-0.0884,-0.0884,-0.0885,-0.0885,-0.0897,-0.0897,-0.0897,0,0,0,0,0,0,0,0,0,0,0,0,0,-0.0898,-0.0898,-0.0889,-0.0888,-0.0888,-0.0875,-0.0875,-0.0875,-0.0884,-0.0884,-0.0885,-0.0885,-0.0897,-0.0897,-0.0897,0,0,0,0,0,0,0,0,0,0,0,0,0,-0.0892,-0.0898,-0.0889,-0.089,-0.089,-0.0875,-0.0875,-0.0875,-0.0884,-0.0884,-0.0885,-0.0885,-0.0897,-0.0897,-0.0897,-0.0888,0,0,-0.0897,-0.0897,0,0,0,0,0,0,0,0,-0.0892,-0.0891,-0.089,-0.089,-0.089,-0.0881,-0.0883,-0.088,-0.0884,-0.0888,-0.0885,-0.0886,-0.0893,-0.0893,-0.0891,-0.0889,-0.0889,-0.0897,-0.0897,-0.0897,-0.0897,0,0,0,0,0,0,0,-0.0893,-0.0892,-0.0885,-0.089,-0.089,-0.0883,-0.0883,-0.0882,-0.0889,-0.0887,-0.0888,-0.0884,-0.0893,-0.0891,-0.0891,-0.0889,-0.0897,-0.0897,-0.0897,-0.0897,-0.0949,-0.0951,0,0,0,0,0,0,-0.0893,-0.0892,-0.0885,-0.0884,-0.0891,-0.0883,-0.0883,-0.0884,-0.0889,-0.0889,-0.0884,-0.0884,-0.0891,-0.0891,-0.0892,-0.0917,-0.0897,-0.0897,-0.0897,-0.0948,-0.095,-0.0951,0,0,0,0,0,0,-0.0893,-0.0892,-0.0885,-0.0887,-0.0885,-0.0882,-0.0884,-0.0884,-0.0894,-0.0885,-0.0887,-0.0895,-0.0891,-0.0892,-0.0887,-0.0916,-0.0897,-0.0897,-0.0946,-0.0949,-0.095,-0.0944,0,0,0,0,0,0,-0.0893,-0.0893,-0.0896,-0.0887,-0.0885,-0.0868,-0.0883,-0.0883,-0.0889,-0.0891,-0.0895,-0.0896,-0.0891,-0.0887,-0.0887,-0.0916,-0.0897,-0.0945,-0.0947,-0.095,-0.0942,-0.0946,-0.0948,0,0,0,0,0,-0.0894,-0.0887,-0.0896,-0.0895,-0.0889,-0.0867,-0.0866,-0.0866,-0.089,-0.0881,-0.0888,-0.0897,-0.0905,-0.0886,-0.0887,-0.0916,-0.0943,-0.0947,-0.095,-0.0941,-0.0945,-0.0948,0,0,0,0,0,0,-0.0894,-0.0887,-0.0897,-0.089,-0.0879,-0.0868,-0.0862,-0.0874,-0.0874,-0.0888,-0.0889,-0.0889,-0.0902,-0.091,-0.089,-0.0944,-0.0936,-0.094,-0.093,-0.0934,-0.0937,-0.0895,-0.0897,0,0,0,0,0,-0.0896,-0.0889,-0.0882,-0.0877,-0.0874,-0.0877,-0.0873,-0.0878,-0.0875,-0.0878,-0.088,-0.0899,-0.0914,-0.0922,-0.0926,-0.0942,-0.0929,-0.0972,-0.0975,-0.0977,-0.0947,-0.0962,-0.0962,-0.0961,-0.0961,-0.0961,0,0,-0.0896,-0.089,-0.0887,-0.0876,-0.0873,-0.0867,-0.0875,-0.0872,-0.0877,-0.0879,-0.0886,-0.0898,-0.0918,-0.0933,-0.0944,-0.0944,-0.0973,-0.0981,-0.0982,-0.095,-0.0965,-0.0964,-0.0964,-0.0963,-0.0963,-0.0963,0,0,-0.088,-0.0887,-0.0875,-0.0866,-0.0861,-0.0864,-0.0868,-0.0867,-0.0876,-0.0883,-0.0896,-0.0908,-0.0936,-0.094,-0.0954,-0.0976,-0.0981,-0.1012,-0.0994,-0.1011,-0.101,-0.1009,-0.099,-0.0987,-0.1021,-0.1021,-0.1021,0,-0.0885,-0.0867,-0.0866,-0.0853,-0.0847,-0.0867,-0.0858,-0.0868,-0.0868,-0.0869,-0.0889,-0.092,-0.0935,-0.0948,-0.0959,-0.0979,-0.0979,-0.0976,-0.1011,-0.1009,-0.1008,-0.0989,-0.0987,-0.1021,-0.1021,-0.1021,-0.1021,0,-0.0854,-0.0848,-0.0839,-0.0834,-0.083,-0.0822,-0.0836,-0.0843,-0.0873,-0.088,-0.0897,-0.0912,-0.0925,-0.0958,-0.0962,-0.0977,-0.0975,-0.1004,-0.0992,-0.1007,-0.0988,-0.0984,-0.1021,-0.1021,-0.1021,-0.1021,0,0,-0.0851,-0.0823,-0.0823,-0.0815,-0.0821,-0.0811,-0.0826,-0.0828,-0.0836,-0.086,-0.0864,-0.0895,-0.0902,-0.0915,-0.0938,-0.0953,-0.0951,-0.0975,-0.0976,-0.0936,-0.0964,-0.0868,-0.0856,-0.0996,-0.0995,-0.0995,-0.095,0,-0.0831,-0.0792,-0.0794,-0.0778,-0.0762,-0.0784,-0.0791,-0.0803,-0.0825,-0.0832,-0.0862,-0.0881,-0.0893,-0.0912,-0.0921,-0.0946,-0.0944,-0.0958,-0.097,-0.0969,-0.0867,-0.0849,-0.0994,-0.0948,-0.0947,-0.0947,-0.0946,0,-0.0801,-0.0778,-0.0746,-0.074,-0.0739,-0.0743,-0.0751,-0.0762,-0.0782,-0.0802,-0.0815,-0.084,-0.085,-0.088,-0.0888,-0.0902,-0.0915,-0.0935,-0.0935,-0.0835,-0.0867,-0.0933,-0.0941,-0.0941,-0.0941,-0.0942,-0.0942,0,-0.0768,-0.0751,-0.0721,-0.0715,-0.0712,-0.0716,-0.0731,-0.0748,-0.0765,-0.0784,-0.0805,-0.0809,-0.0835,-0.0847,-0.0864,-0.089,-0.0871,-0.0922,-0.0836,-0.0829,-0.0931,-0.0933,-0.0914,-0.0914,-0.0914,-0.0915,-0.0915,0,-0.0723,-0.0708,-0.0705,-0.0683,-0.0678,-0.0691,-0.0701,-0.0714,-0.0745,-0.076,-0.0787,-0.0802,-0.0835,-0.0833,-0.0844,-0.08,-0.0851,-0.0796,-0.0804,-0.0932,-0.0934,-0.0929,-0.0931,-0.0913,-0.0913,-0.0914,-0.0914,0,-0.0673,-0.0666,-0.0646,-0.0647,-0.0655,-0.0654,-0.0701,-0.0709,-0.074,-0.0763,-0.0778,-0.0804,-0.0785,-0.0781,-0.0794,-0.0769,-0.075,-0.0726,-0.0817,-0.0837,-0.0703,-0.0706,-0.0623,-0.0619,-0.0615,-0.0613,-0.061,0,-0.0626,-0.0608,-0.0621,-0.0624,-0.0627,-0.0643,-0.066,-0.0702,-0.0719,-0.0762,-0.0768,-0.0764,-0.0765,-0.0681,-0.0691,-0.0643,-0.0651,-0.0628,-0.0687,-0.0652,-0.067,-0.0678,-0.0685,-0.0605,-0.0604,-0.0603,-0.0602,0,-0.056,-0.0583,-0.0574,-0.0575,-0.0593,-0.0612,-0.0641,-0.065,-0.0696,-0.0741,-0.0734,-0.0709,-0.0666,-0.0634,-0.0573,-0.0564,-0.0636,-0.0594,-0.0602,-0.0658,-0.0631,-0.0653,-0.0664,-0.0591,-0.0593,-0.0594,-0.0594,0,-0.0535,-0.0527,-0.053,-0.0529,-0.0549,-0.0554,-0.0584,-0.0601,-0.0624,-0.0674,-0.0673,-0.0658,-0.0674,-0.0592,-0.0555,-0.0497,-0.051,-0.0515,-0.0528,-0.0541,-0.0529,-0.0484,-0.0376,0,0,0,0,0,-0.0504,-0.049,-0.0483,-0.0474,-0.0491,-0.0498,-0.0554,-0.0589,-0.0641,-0.0617,-0.0641,-0.0601,-0.0535,-0.0533,-0.0453,-0.0498,-0.0497,-0.0402,-0.0508,-0.0527,-0.0541,-0.0532,0,0,0,0,0,0,-0.0482,-0.0479,-0.0463,-0.0422,-0.0405,-0.0418,-0.0448,-0.0492,-0.0487,-0.0543,-0.0509,-0.055,-0.0488,-0.0551,-0.0433,-0.0425,-0.0477,-0.0397,-0.0395,-0.052,-0.0532,-0.0542,-0.0538,0,0,0,0,0]},{"header":{"parameterUnit":"m.s-1","parameterCategory":2,"la1":30.2991,"la2":30.254,"lo1":-89.0895,"lo2":-89.0444,"dy":0.0017,"dx":0.0017,"nx":28,"ny":28,"refTime":"2024-07-03T09:00:00:Z","depth":"4","parameterNumber":3,"parameterNumberName":"V-component_of_CURRENTS"},"data":[0,0,0,0,0,0,0,0,0,0,0,0,0,0,0,0,0,0,0,0,0,0,0,0,0,0,0,0,0,0,0,0,0,0,0,0,0,0,0,0,0,0,0,0,0,0,0,0,0,0,0,0,0,0,0,0,0,0,-0.0384,-0.0384,0,-0.0428,-0.0429,-0.043,-0.0483,-0.0483,-0.0483,-0.0484,-0.051,-0.051,-0.0511,0,0,0,0,0,0,0,0,0,0,0,0,0,-0.0389,-0.0389,-0.0384,-0.0384,-0.0384,-0.0428,-0.0429,-0.043,-0.0483,-0.0483,-0.0483,-0.0484,-0.051,-0.051,-0.0511,0,0,0,0,0,0,0,0,0,0,0,0,0,-0.041,-0.0389,-0.0384,-0.0412,-0.0414,-0.0428,-0.0429,-0.0431,-0.0482,-0.0483,-0.0483,-0.0484,-0.0509,-0.051,-0.0511,-0.0504,0,0,-0.0512,-0.0513,0,0,0,0,0,0,0,0,-0.0409,-0.0411,-0.0407,-0.041,-0.0412,-0.0446,-0.0441,-0.0452,-0.0482,-0.0462,-0.0484,-0.0484,-0.0483,-0.0486,-0.0501,-0.0505,-0.0506,-0.0512,-0.0513,-0.0513,-0.0513,0,0,0,0,0,0,0,-0.0408,-0.0409,-0.0407,-0.0407,-0.041,-0.0437,-0.0441,-0.0444,-0.0473,-0.0464,-0.0466,-0.0463,-0.0485,-0.05,-0.0501,-0.0507,-0.0512,-0.0513,-0.0513,-0.0513,-0.0523,-0.0522,0,0,0,0,0,0,-0.0389,-0.0408,-0.0405,-0.0407,-0.0406,-0.0436,-0.044,-0.0439,-0.0473,-0.0478,-0.0463,-0.0465,-0.0499,-0.0501,-0.0502,-0.0541,-0.0513,-0.0514,-0.0514,-0.0523,-0.0522,-0.0522,0,0,0,0,0,0,-0.0389,-0.0388,-0.0403,-0.0405,-0.0408,-0.0434,-0.0433,-0.0439,-0.0463,-0.0471,-0.0477,-0.048,-0.0499,-0.0502,-0.0533,-0.0541,-0.0514,-0.0514,-0.0523,-0.0523,-0.0522,-0.059,0,0,0,0,0,0,-0.0389,-0.0388,-0.0394,-0.0403,-0.0407,-0.0424,-0.0432,-0.044,-0.0457,-0.0462,-0.0487,-0.049,-0.05,-0.0532,-0.0533,-0.0541,-0.0515,-0.0523,-0.0523,-0.0522,-0.0588,-0.0592,-0.0595,0,0,0,0,0,-0.0389,-0.0401,-0.0394,-0.0394,-0.041,-0.0424,-0.043,-0.0453,-0.0457,-0.0476,-0.0501,-0.049,-0.053,-0.0534,-0.0535,-0.0543,-0.0523,-0.0523,-0.0523,-0.0586,-0.0591,-0.0595,0,0,0,0,0,0,-0.0412,-0.0407,-0.04,-0.0411,-0.0416,-0.0431,-0.0448,-0.0455,-0.0489,-0.0494,-0.0506,-0.0511,-0.0538,-0.0525,-0.0528,-0.0539,-0.0517,-0.0517,-0.0564,-0.0569,-0.0573,-0.0576,-0.0515,0,0,0,0,0,-0.0413,-0.042,-0.0415,-0.0423,-0.0423,-0.0433,-0.0444,-0.0454,-0.0475,-0.0491,-0.0508,-0.0518,-0.0534,-0.0542,-0.0552,-0.0565,-0.0533,-0.0561,-0.0566,-0.0569,-0.0569,-0.056,-0.0564,-0.0522,-0.0522,-0.0522,0,0,-0.0422,-0.042,-0.0424,-0.0428,-0.0433,-0.0446,-0.0444,-0.0459,-0.0481,-0.0486,-0.0529,-0.0538,-0.0542,-0.0568,-0.0574,-0.0561,-0.0555,-0.0569,-0.0573,-0.0571,-0.056,-0.0565,-0.0569,-0.0521,-0.0521,-0.0522,0,0,-0.0442,-0.044,-0.045,-0.0453,-0.0454,-0.0463,-0.0465,-0.0478,-0.0501,-0.0534,-0.0543,-0.0567,-0.0582,-0.0599,-0.0606,-0.063,-0.0581,-0.0611,-0.0636,-0.0628,-0.0632,-0.0635,-0.0566,-0.0563,-0.061,-0.061,-0.061,0,-0.0454,-0.0462,-0.0458,-0.0465,-0.0472,-0.0469,-0.0484,-0.0505,-0.0532,-0.0551,-0.0554,-0.0591,-0.0602,-0.0634,-0.0648,-0.0643,-0.0603,-0.0626,-0.0635,-0.0638,-0.064,-0.0569,-0.0565,-0.0613,-0.0613,-0.0612,-0.0612,0,-0.0474,-0.0484,-0.0491,-0.0498,-0.0509,-0.0522,-0.0532,-0.0555,-0.0573,-0.059,-0.0627,-0.0648,-0.0666,-0.0668,-0.0674,-0.0688,-0.0639,-0.0649,-0.063,-0.0649,-0.0572,-0.0566,-0.0618,-0.0616,-0.0616,-0.0615,0,0,-0.0488,-0.0504,-0.0505,-0.0517,-0.0527,-0.054,-0.0572,-0.0603,-0.0625,-0.0653,-0.0679,-0.0724,-0.0719,-0.0724,-0.0722,-0.072,-0.0702,-0.069,-0.0688,-0.0632,-0.063,-0.0576,-0.0563,-0.0713,-0.0713,-0.0714,-0.0557,0,-0.0505,-0.0533,-0.0536,-0.0567,-0.0583,-0.0589,-0.0623,-0.0649,-0.067,-0.0693,-0.0711,-0.0731,-0.0743,-0.0743,-0.0751,-0.0716,-0.0694,-0.074,-0.061,-0.0605,-0.0566,-0.0559,-0.0714,-0.0553,-0.0551,-0.055,-0.055,0,-0.0518,-0.054,-0.0577,-0.0607,-0.0613,-0.0636,-0.0676,-0.0702,-0.0728,-0.0739,-0.0756,-0.0751,-0.0755,-0.0757,-0.0713,-0.0736,-0.0686,-0.0655,-0.0649,-0.0575,-0.0542,-0.0536,-0.0538,-0.0539,-0.054,-0.0541,-0.0542,0,-0.0534,-0.0563,-0.0601,-0.061,-0.0647,-0.0671,-0.0693,-0.0724,-0.0738,-0.0753,-0.0744,-0.0757,-0.0733,-0.0711,-0.0648,-0.0674,-0.0568,-0.0596,-0.0491,-0.0483,-0.055,-0.0549,-0.0555,-0.0556,-0.0556,-0.0556,-0.0557,0,-0.0549,-0.0579,-0.0614,-0.0636,-0.0674,-0.0693,-0.0727,-0.0746,-0.0758,-0.0756,-0.0762,-0.0737,-0.0722,-0.0659,-0.0625,-0.0521,-0.0544,-0.0482,-0.0451,-0.0574,-0.0577,-0.0543,-0.0544,-0.0551,-0.0552,-0.0553,-0.0554,0,-0.0563,-0.0587,-0.0626,-0.0671,-0.0683,-0.071,-0.0729,-0.0744,-0.0755,-0.0741,-0.0734,-0.0699,-0.0612,-0.0563,-0.0485,-0.0462,-0.0389,-0.0342,-0.042,-0.0398,-0.0308,-0.0314,-0.0215,-0.0212,-0.021,-0.0208,-0.0206,0,-0.058,-0.0606,-0.0643,-0.0655,-0.0676,-0.0708,-0.0722,-0.0742,-0.0736,-0.0709,-0.0686,-0.0601,-0.0566,-0.039,-0.0367,-0.0259,-0.0264,-0.0212,-0.0325,-0.0299,-0.0279,-0.0288,-0.0297,-0.0202,-0.0201,-0.0201,-0.02,0,-0.0609,-0.062,-0.0639,-0.066,-0.0676,-0.0689,-0.0701,-0.0688,-0.0692,-0.0696,-0.061,-0.054,-0.0421,-0.0344,-0.0238,-0.0186,-0.0254,-0.0186,-0.0193,-0.0299,-0.0282,-0.0266,-0.0278,-0.0191,-0.0193,-0.0193,-0.0194,0,-0.0617,-0.0623,-0.0638,-0.0649,-0.0667,-0.0664,-0.0671,-0.064,-0.0631,-0.0595,-0.0557,-0.0468,-0.0421,-0.0299,-0.022,-0.0144,-0.0157,-0.0171,-0.0178,-0.0188,-0.0254,-0.0232,-0.0088,0,0,0,0,0,-0.0624,-0.0615,-0.0627,-0.063,-0.0645,-0.0656,-0.0653,-0.0652,-0.0638,-0.0564,-0.0561,-0.0452,-0.0324,-0.0275,-0.0185,-0.0199,-0.0158,-0.0095,-0.0182,-0.0143,-0.0153,-0.0235,0,0,0,0,0,0,-0.0616,-0.0622,-0.0617,-0.0613,-0.0615,-0.0627,-0.0624,-0.0614,-0.0564,-0.0543,-0.0462,-0.0443,-0.0309,-0.0367,-0.0186,-0.0166,-0.0213,-0.0041,-0.0039,-0.0138,-0.0147,-0.0155,-0.0243,0,0,0,0,0]}]]